Location: Vancouver
(49.2500°N, 123.1330°W)
Time: 14:06:26
(UTC-07:00)

Oscar 11 - Visible Passes

Search period start: 23 April 2014 00:00
Search period end: 03 May 2014 00:00
Orbit: 618 x 630 km, 97.9° (Epoch: 23 April)

Date Brightness Start Highest point End Pass type
(mag) Time Alt. Az. Time Alt. Az. Time Alt. Az.
23 Apr 7.0 22:05:36 23° SSE 22:08:15 89° ENE 22:12:37 10° NNW visible
23 Apr 9.8 23:43:55 10° WSW 23:45:06 11° W 23:46:18 10° WNW visible
24 Apr 8.8 20:48:10 10° ESE 20:51:07 18° ENE 20:54:05 10° NNE visible
24 Apr 7.5 22:24:22 23° S 22:26:54 60° W 22:31:13 10° NNW visible
25 Apr 8.3 21:06:01 10° ESE 21:09:35 26° ENE 21:13:10 10° N visible
25 Apr 8.2 22:43:07 20° SSW 22:45:37 39° W 22:49:43 10° NNW visible
26 Apr 7.8 21:24:38 13° SE 21:28:05 37° ENE 21:32:05 10° N visible
26 Apr 8.8 23:01:53 16° SW 23:04:23 26° W 23:08:03 10° NW visible
27 Apr 7.3 21:43:23 16° SE 21:46:38 55° ENE 21:50:54 10° N visible
27 Apr 9.4 23:20:38 12° SW 23:23:11 18° W 23:26:10 10° NW visible
28 Apr 7.0 22:02:09 19° SSE 22:05:14 84° ENE 22:09:36 10° NNW visible
28 Apr 9.7 23:40:27 10° WSW 23:42:03 12° W 23:43:40 10° WNW visible
29 Apr 7.4 22:20:54 19° S 22:23:53 64° WSW 22:28:13 10° NNW visible
30 Apr 8.4 21:03:05 10° ESE 21:06:34 24° ENE 21:10:05 10° N visible
30 Apr 8.1 22:39:39 18° SSW 22:42:34 42° W 22:46:43 10° NNW visible
01 May 7.9 21:21:09 10° SE 21:25:03 35° ENE 21:29:01 10° N visible
01 May 8.7 22:58:24 14° SSW 23:01:19 28° W 23:05:05 10° NW visible
02 May 7.4 21:39:54 13° SE 21:43:35 52° ENE 21:47:49 10° N visible
02 May 9.3 23:17:09 11° SW 23:20:06 19° W 23:23:13 10° NW visible
